Home > Weather > Valletta > Past weeks

Flag for Malta Weather for the Past 2 Weeks in Valletta, Malta

Now
68 °F

Passing clouds.


Feels Like: 68 °F
Forecast: 57 / 65 °F
Wind: 9 mph from Southwest

Location: Luqa

Current Time: Feb 12, 2016 at 1:19:54 PM

Latest Report: Feb 12, 2016 at 12:45 PM


Visibility: N/A

Pressure: 29.92 "Hg

Humidity: 53%

Dew point: 50 °F

Location of VallettaLocation

Historic Weather in Valletta — Graph

°F

Valletta Temperature Yesterday

Maximum temperature yesterday: 66 °F (at 12:45 PM)
Minimum temperature yesterday: 55 °F (at 12:15 AM)
Average temperature yesterday: 60 °F

High & Low Weather Summary for the Past Weeks

 TemperatureHumidityPressure
High68 °F (Feb 10, 1:15 PM)100% (Jan 29, 12:15 AM)30.51 "Hg (Jan 29, 12:15 AM)
Low46 °F (Jan 30, 6:15 AM)45% (Feb 6, 9:45 AM)29.92 "Hg (Feb 10, 12:45 PM)
Average57 °F78%30.25 "Hg
* Reported Jan 28 12:15 PM — Feb 12 12:15 PM, Valletta, Weather by CustomWeather, © 2016

Note: Actual official high and low records may vary slightly from our data, if they occured in-between our weather recording intervals... More about our weather records

Advertising

Valletta Weather History for the Previous 24 Hours

 ConditionsComfort  
Time TempWeatherWind HumidityBarometerVisibility
12:15 PM
Fri, Feb 12
68 °FPassing clouds.5 mph64%29.92 "HgN/A
11:45 AM68 °FPassing clouds.2 mph64%29.92 "HgN/A
11:15 AM63 °FScattered clouds.2 mph77%29.92 "HgN/A
10:45 AM63 °FPassing clouds.8 mph77%29.95 "HgN/A
10:15 AM63 °FPassing clouds.8 mph77%29.95 "HgN/A
9:45 AM64 °FPassing clouds.8 mph73%29.95 "HgN/A
9:15 AM61 °FSunny.8 mph88%29.95 "Hg10 mi
8:45 AM61 °FSunny.8 mph83%29.95 "Hg10 mi
8:15 AM61 °FPassing clouds.7 mph83%29.95 "HgN/A
7:45 AM59 °FSunny.8 mph88%29.95 "Hg10 mi
7:15 AM59 °FSunny.8 mph88%29.95 "Hg10 mi
6:45 AM59 °FPassing clouds.7 mph88%29.92 "HgN/A
6:15 AM59 °FLight rain. Clear.6 mph94%29.92 "HgN/A
5:45 AM59 °FClear.6 mph100%29.92 "Hg10 mi
5:15 AM59 °FPassing clouds.7 mph100%29.92 "HgN/A
4:45 AM59 °FClear.8 mph94%29.92 "Hg10 mi
4:15 AM59 °FPassing clouds.5 mph94%29.92 "HgN/A
4:04 AM59 °FOvercast.5 mph94%29.92 "Hg6 mi
3:15 AM59 °FMostly cloudy.6 mph94%29.95 "Hg4 mi
2:45 AM59 °FClear.6 mph94%29.95 "Hg10 mi
2:15 AM59 °FClear.6 mph94%29.95 "Hg10 mi
1:45 AM59 °FClear.7 mph94%29.95 "Hg10 mi
1:15 AM59 °FClear.7 mph82%29.95 "Hg10 mi
12:45 AM57 °FClear.6 mph82%29.95 "Hg10 mi
12:15 AM57 °FPassing clouds.3 mph82%29.95 "HgN/A
11:45 PM
Thu, Feb 11
55 °FPassing clouds.3 mph88%29.98 "HgN/A
10:45 PM57 °FClear.5 mph82%29.98 "Hg10 mi
10:15 PM57 °FClear.7 mph88%29.98 "Hg10 mi
9:45 PM57 °FClear.5 mph82%29.98 "Hg10 mi
9:15 PM57 °FClear.6 mph88%29.98 "Hg10 mi
8:45 PM57 °FPassing clouds.5 mph88%29.98 "HgN/A
8:15 PM59 °FClear.7 mph88%29.98 "Hg10 mi
7:45 PM59 °FClear.8 mph82%29.98 "Hg10 mi
7:15 PM59 °FPassing clouds.9 mph82%29.98 "HgN/A
6:45 PM59 °FPassing clouds.9 mph82%29.98 "HgN/A
6:15 PM61 °FClear.10 mph77%29.95 "Hg10 mi
5:45 PM61 °FPassing clouds.10 mph77%29.95 "HgN/A
5:15 PM63 °FSunny.10 mph73%29.95 "Hg10 mi
4:45 PM63 °FPassing clouds.12 mph73%29.95 "HgN/A
4:15 PM64 °FPassing clouds.12 mph68%29.95 "HgN/A
3:45 PM64 °FSunny.16 mph68%29.95 "Hg10 mi
3:15 PM64 °FPassing clouds.14 mph68%29.95 "HgN/A
2:45 PM64 °FSunny.18 mph64%29.95 "Hg10 mi
2:15 PM66 °FSunny.17 mph64%29.95 "Hg10 mi
1:45 PM66 °FPassing clouds.15 mph64%29.95 "HgN/A
1:15 PM66 °FPassing clouds.16 mph64%29.98 "HgN/A
Weather by CustomWeather, © 2016

See weather overviewHow to use our weather pages